[[{"header":{"parameterUnit":"m.s-1","parameterCategory":1,"la1":30.2992,"la2":30.254,"lo1":-89.0895,"lo2":-89.0443,"dy":0.0025,"dx":0.0025,"nx":19,"ny":19,"refTime":"2026-05-07T09:00:00:Z","depth":0,"parameterNumber":2,"parameterNumberName":"U-component_of_WINDS"},"data":[0,0,0,-3.8106,-3.8109,-3.8214,-3.8214,-3.8383,-3.8384,0,0,0,0,0,0,0,0,0,0,0,-3.8097,-3.8099,-3.8106,-3.8109,-3.8214,-3.8214,-3.8382,-3.8384,0,0,0,0,0,0,0,0,0,0,0,-3.8096,-3.8098,-3.81,-3.811,-3.8214,-3.8214,-3.8382,-3.829,0,0,0,0,0,0,0,0,0,0,-3.8183,-3.8195,-3.8098,-3.81,-3.8111,-3.8214,-3.8214,-3.8285,-3.8296,-3.835,0,-3.8404,0,-3.8397,-3.8398,-3.8399,0,0,0,-3.8093,-3.8186,-3.8195,-3.8101,-3.8112,-3.8214,-3.8162,-3.8291,-3.8303,-3.8364,-3.8406,-3.8411,-3.84,-3.8399,-3.84,-3.8764,-3.8767,0,0,-3.8088,-3.8127,-3.8187,-3.8204,-3.8191,-3.8159,-3.8166,-3.8298,-3.8346,-3.8406,-3.8414,-3.8403,-3.8401,-3.8402,-3.8762,-3.8765,0,0,0,-3.8082,-3.8124,-3.8128,-3.8198,-3.8214,-3.8163,-3.817,-3.834,-3.8338,-3.8416,-3.8405,-3.8402,-3.8404,-3.8759,-3.8763,-3.8923,0,0,0,-3.8078,-3.812,-3.8127,-3.8152,-3.8213,-3.8279,-3.821,-3.8329,-3.8342,-3.8404,-3.8402,-3.8406,-3.8757,-3.8761,-3.8913,-3.8993,0,0,0,-3.8083,-3.812,-3.8143,-3.8154,-3.82,-3.8275,-3.8281,-3.8331,-3.8337,-3.8399,-3.8407,-3.8755,-3.876,-3.8904,-3.8977,-3.91,0,0,0,-3.8099,-3.8283,-3.8146,-3.8347,-3.82,-3.8374,-3.8279,-3.8407,-3.8479,-3.8403,-3.8757,-3.8763,-3.8901,-3.8968,-3.9091,-3.9212,-3.9265,0,0,-3.8354,-3.8316,-3.8431,-3.8311,-3.8519,-3.8354,-3.8586,-3.8615,-3.8584,-3.8706,-3.8714,-3.8916,-3.8976,-3.9098,-3.9552,-3.9595,0,0,0,-3.8525,-3.8608,-3.8655,-3.8726,-3.8752,-3.8782,-3.8771,-3.8781,-3.8883,-3.8655,-3.8992,-3.9027,-3.9097,-3.9153,-3.9189,-3.9247,-3.879,-3.8789,-3.8789,-3.8942,-3.8893,-3.9081,-3.9045,-3.9115,-3.9102,-3.9154,-3.9165,-3.9095,-3.9176,-3.9212,-3.9494,-3.9561,-3.9588,-3.9649,-3.9271,-3.9272,-3.9272,-3.9273,-3.9311,-3.9422,-3.9324,-3.9471,-3.9419,-3.9541,-3.9535,-3.9482,-3.9588,-3.9462,-3.9521,-3.9389,-3.9637,-3.9687,-3.9284,-3.9282,-3.9281,-3.928,-3.9279,-3.958,-3.9624,-3.9634,-3.9731,-3.9812,-3.9768,-3.9875,-3.9822,-3.9774,-3.9832,-3.9865,-3.9862,-3.9853,-3.9851,-3.9852,-3.9853,-3.9854,-3.9855,-3.9855,-3.9855,-3.986,-3.9957,-4.0001,-4.0039,-4.0083,-4.0071,-4.0108,-4.0134,-4.0088,-4.0088,-4.001,-3.967,-3.9586,-3.987,-3.9868,-3.9866,-3.9864,-3.9863,-4.0248,-4.0151,-4.0301,-4.034,-4.0386,-4.0469,-4.0401,-4.0479,-4.0501,-4.0556,-4.0465,-4.0222,-4.0179,-4.0149,-4.008,-4.0475,-4.0475,-4.0475,-4.0475,-4.0476,-4.0448,-4.059,-4.0655,-4.0713,-4.0666,-4.0836,-4.0829,-4.0805,-4.0816,-4.0751,-4.0653,-4.0625,-4.0599,-4.056,-4.0494,-4.0986,-4.0986,-4.0987,-4.0715,-4.0691,-4.0847,-4.0823,-4.0855,-4.0884,-4.1043,-4.1121,-4.1074,-4.1006,-4.0823,-4.0802,-4.0643,-4.0595,-4.0524,-4.0464,-4.0342,0,0]},{"header":{"parameterUnit":"m.s-1","parameterCategory":1,"la1":30.2992,"la2":30.254,"lo1":-89.0895,"lo2":-89.0443,"dy":0.0025,"dx":0.0025,"nx":19,"ny":19,"refTime":"2026-05-07T09:00:00:Z","depth":0,"parameterNumber":3,"parameterNumberName":"V-component_of_WINDS"},"data":[0,0,0,-2.5284,-2.5285,-2.5329,-2.5329,-2.5389,-2.539,0,0,0,0,0,0,0,0,0,0,0,-2.5275,-2.5275,-2.5284,-2.5285,-2.5329,-2.5329,-2.5389,-2.539,0,0,0,0,0,0,0,0,0,0,0,-2.5275,-2.5275,-2.5276,-2.5286,-2.5329,-2.5329,-2.5389,-2.5354,0,0,0,0,0,0,0,0,0,0,-2.5311,-2.5306,-2.5275,-2.5276,-2.5286,-2.5329,-2.5329,-2.5353,-2.5357,-2.5372,0,-2.5387,0,-2.5389,-2.5394,-2.5395,0,0,0,-2.5283,-2.5303,-2.5312,-2.5276,-2.5286,-2.5329,-2.5309,-2.5355,-2.5359,-2.5377,-2.5388,-2.539,-2.539,-2.5395,-2.5395,-2.5492,-2.5492,0,0,-2.528,-2.5285,-2.5308,-2.5315,-2.5309,-2.5307,-2.531,-2.5357,-2.5369,-2.5388,-2.5391,-2.5391,-2.5395,-2.5396,-2.5491,-2.5492,0,0,0,-2.5275,-2.5283,-2.529,-2.5312,-2.532,-2.5309,-2.5312,-2.5367,-2.5369,-2.5392,-2.5392,-2.5396,-2.5396,-2.5491,-2.5492,-2.5524,0,0,0,-2.5273,-2.528,-2.5289,-2.5293,-2.5319,-2.5344,-2.5321,-2.5366,-2.5371,-2.5392,-2.5396,-2.5397,-2.549,-2.5491,-2.5522,-2.5539,0,0,0,-2.5271,-2.528,-2.5287,-2.5293,-2.5312,-2.5343,-2.5348,-2.5367,-2.5372,-2.5395,-2.5397,-2.549,-2.5491,-2.552,-2.5535,-2.5565,0,0,0,-2.5269,-2.5316,-2.5288,-2.5341,-2.5311,-2.5364,-2.5348,-2.5387,-2.541,-2.5396,-2.549,-2.5492,-2.5519,-2.5533,-2.5562,-2.5589,-2.5601,0,0,-2.5331,-2.5324,-2.5355,-2.533,-2.5389,-2.5357,-2.5419,-2.5437,-2.5435,-2.5473,-2.5475,-2.5523,-2.5535,-2.5564,-2.5668,-2.5677,0,0,0,-2.5376,-2.5398,-2.5412,-2.5435,-2.545,-2.5463,-2.5471,-2.5477,-2.5508,-2.5456,-2.5541,-2.5549,-2.5565,-2.5578,-2.5586,-2.5599,-2.5498,-2.5498,-2.5498,-2.547,-2.5465,-2.5515,-2.5514,-2.5536,-2.5543,-2.556,-2.5569,-2.5558,-2.5578,-2.5589,-2.5652,-2.5667,-2.5673,-2.5688,-2.5603,-2.5603,-2.5604,-2.5604,-2.556,-2.559,-2.5572,-2.5614,-2.5608,-2.5643,-2.565,-2.564,-2.5671,-2.5644,-2.5659,-2.5629,-2.5684,-2.5696,-2.5606,-2.5606,-2.5605,-2.5605,-2.5605,-2.5621,-2.5634,-2.5641,-2.5672,-2.5696,-2.5693,-2.5723,-2.5716,-2.571,-2.5725,-2.5734,-2.5734,-2.5731,-2.573,-2.573,-2.573,-2.573,-2.5731,-2.5731,-2.5681,-2.5687,-2.5713,-2.5732,-2.5744,-2.576,-2.5766,-2.5778,-2.5789,-2.5782,-2.5782,-2.5767,-2.5691,-2.5671,-2.5734,-2.5733,-2.5733,-2.5733,-2.5733,-2.5773,-2.575,-2.5791,-2.5804,-2.5823,-2.5847,-2.5837,-2.5862,-2.5871,-2.5886,-2.5868,-2.5813,-2.5805,-2.5798,-2.5782,-2.587,-2.587,-2.587,-2.587,-2.5823,-2.5818,-2.5857,-2.5878,-2.5897,-2.5892,-2.5936,-2.594,-2.5941,-2.5946,-2.5932,-2.591,-2.5904,-2.5899,-2.5891,-2.5875,-2.5985,-2.5985,-2.5985,-2.5879,-2.5875,-2.5915,-2.5915,-2.5929,-2.5941,-2.5982,-2.6005,-2.6002,-2.5989,-2.5949,-2.5944,-2.5908,-2.5897,-2.5884,-2.5871,-2.5842,0,0]}]]